Location: Brunembert
(50.7122°N, 1.8935°E)
Time: 10:38:35
(UTC+00:00)

Cosmos 1812 - Pass Details

Date: 22 April 2021
Orbit: 517 x 519 km, 82.5° (Epoch: 05 May)

Event Time Altitude Azimuth Distance (km) Brightness Sun altitude
Exits shadow 23:47:58 42° 8° (N) 759 3.9 -26.7°
Drops below altitude 10° 23:50:36 10° 10° (N) 1,765 6.4 -26.8°
Sets 23:52:45 0° 11° (N) 2,659 7.6 -26.7°
